Regional Weather Roundup
Issued by NWS

Home | Current Version | Previous Version | Text Only | Print | Product List | Glossary Off
Versions: 1 2 3 4 5 6 7 8 9 10 11 12 13 14 15 16 17 18 19 20 21 22 23 24 25 26 27 28 29 30 31 32 33 34 35 36 37 38 39 40 41 42 43 44 45 46 47 48 49 50

000
ASUS43 KMPX 010010
RWRMN
WEATHER ROUNDUP FOR MINNESOTA
NATIONAL WEATHER SERVICE TWIN CITIES/CHANHASSEN MN
700 PM CDT FRI SEP 30 2016


NOTE: "FAIR" INDICATES FEW OR NO CLOUDS BELOW 12,000 FEET WITH NO
SIGNIFICANT WEATHER AND/OR OBSTRUCTIONS TO VISIBILITY. N/A MEANS
CURRENT SKY AND/OR WEATHER CONDITIONS ARE NOT AVAILABLE.

MNZ060>063-068>070-010100-
   Twin Cities Metro

CITY           SKY/WX    TMP DP  RH WIND       PRES   REMARKS
TWIN CITIES    PTCLDY    67  49  52 N7        30.21F
6HR MIN TEMP:  66; 6HR MAX TEMP:  71;

ST PAUL        CLEAR     66  50  56 N6        30.22S
CRYSTAL        CLEAR     64  49  57 N5        30.21S
LAKEVILLE      CLEAR     64  52  63 NE6       30.21S
EDEN PRAIRIE   CLEAR     67  48  50 N6        30.20F
6HR MIN TEMP:  66; 6HR MAX TEMP:  72;

LAKEVILLE      CLEAR     64  52  63 NE6       30.21S
SOUTH ST PAUL  CLEAR     67  49  52 CALM      30.21R
LAKE ELMO      FAIR      64  52  63 CALM      30.22S
$$
MNZ001>005-007-008-013>017-022>024-027-028-010100-
   Northwest Minnesota

CITY           SKY/WX    TMP DP  RH WIND       PRES   REMARKS
BEMIDJI        PTCLDY    56  51  85 E5        30.28F
HALLOCK        PTCLDY    63  54  72 E7        30.21S
ROSEAU         CLOUDY    57  52  82 SE6       30.26F
WARROAD        CLOUDY    57  54  88 SE6       30.28S
THIEF RVR FALL PTCLDY    61  53  75 E10       30.24S
CROOKSTON      CLEAR     61  48  63 SE8       30.22S
FOSSTON        PTCLDY    61  48  63 E3        30.26S
DETROIT LAKES  PTCLDY    61  50  67 SE7       30.26S
MOORHEAD       PTCLDY    64  48  55 SE6       30.22S
PARK RAPIDS    CLEAR     62  48  60 E6        30.26F
MAHNOMEN       FAIR      61  50  67 SE5       30.24F
$$
MNZ006-009>011-018-025>026-010100-
   North Central Minnesota

CITY           SKY/WX    TMP DP  RH WIND       PRES   REMARKS
BAUDETTE       CLEAR     52  50  93 E8        30.30F
FLAG ISLAND    MOCLDY    55  52  88 SE6       30.28F
INTL FALLS     CLEAR     52  50  93 NE5       30.31F
6HR MIN TEMP:  51; 6HR MAX TEMP:  59;

WASKISH        CLEAR     57  52  82 E3        30.29F
BIG FORK       CLEAR     54  50  87 CALM      30.30S
GRAND RAPIDS   CLEAR     60  47  61 SE5       30.31S
CRANE LAKE     CLEAR     52  52 100 CALM      30.33S
ORR            CLEAR     55  48  76 CALM      30.29S
COOK           CLEAR     57  52  82 CALM      30.31F
WALKER         FAIR      56  52  87 CALM      30.27F
$$
MNZ012-019>021-037-010100-
   Northeast Minnesota

CITY           SKY/WX    TMP DP  RH WIND       PRES   REMARKS
DULUTH         CLOUDY    52  51  97 E10       30.31F
6HR MIN TEMP:  52; 6HR MAX TEMP:  59;

ELY            CLEAR     57  45  62 SE6       30.32F
HIBBING        CLEAR     55  45  68 SE5       30.30S
EVELETH        CLEAR     60  46  59 CALM      30.32F
DULUTH HARBOR  CLOUDY    55  52  88 NE17      30.33S
TWO HARBORS    PTCLDY    55  50  82 E5        30.31F
SILVER BAY     CLEAR     52  52 100 CALM      30.32F
GRAND MARAIS     N/A     55  55 100 E5        30.34F
G MARAIS ARPRT CLEAR     54  46  76 NE3       30.37S
$$
MNZ029>031-032-039>041-046>048-054>057-064-010100-
   West Central Minnesota

CITY           SKY/WX    TMP DP  RH WIND       PRES   REMARKS
FERGUS FALLS   PTCLDY    63  50  63 E6        30.24S
MORRIS         CLEAR     61  46  59 E8        30.22S
ALEXANDRIA     CLEAR     62  50  64 E5        30.25F
ELBOW LAKE     FAIR      60  50  69 SE8       30.23S
WADENA         CLEAR     61  48  63 E5        30.26S
GLENWOOD       CLEAR     59  48  67 NE3       30.25S
BENSON         CLEAR     63  46  55 E3        30.22S
ORTONVILLE     PTCLDY    64  48  55 CALM      30.20S HAZE
MADISON        CLEAR     66  46  48 E5        30.20S
WILLMAR        FAIR      63  48  59 E5        30.23S
$$
MNZ033>034-036-042>043-049>051-058-059-010100-
   Central Minnesota

CITY           SKY/WX    TMP DP  RH WIND       PRES   REMARKS
ST CLOUD       CLEAR     61  53  75 CALM      30.23F
6HR MIN TEMP:  61; 6HR MAX TEMP:  70;

SAUK CENTRE    FAIR      61  48  62 E3        30.24S
PAYNESVILLE    CLEAR     63  47  55 E6        30.24S
AITKIN         CLEAR     61  45  55 E5        30.27S
PINE RIVER     CLEAR     57  52  82 CALM      30.30S
BRAINERD       CLEAR     59  47  64 NE5       30.27S
STAPLES        CLEAR     59  46  63 CALM      30.26S
LONG PRAIRIE   FAIR      59  50  72 N3        30.25F
LITTLE FALLS   CLEAR     59  52  77 CALM      30.25F
LITCHFIELD     CLEAR     63  52  67 E3        30.23F
BUFFALO        CLEAR     64  50  61 CALM      30.23F
MAPLE LAKE     CLEAR     61  55  79 CALM      30.24S
HUTCHINSON     PTCLDY    65  51  61 E3        30.24S
$$
MNZ037-044-045-052-053-010100-
   East Central Minnesota

CITY           SKY/WX    TMP DP  RH WIND       PRES   REMARKS
PRINCETON      CLEAR     64  50  59 E5        30.24S
MORA           CLEAR     59  50  72 NE3       30.27F
CAMBRIDGE      CLEAR     66  52  59 NE3       30.22F
MOOSE LAKE     CLOUDY    54  50  87 NE7       30.28F
HINCKLEY       FAIR      55  52  88 N9        30.27F
CLOQUET        CLOUDY    52  48  87 E9G16     30.31F
MCGREGOR       CLEAR     55  48  76 E9        30.29F
$$
MNZ071>073-080-081-089-090-097-098-010100-
   Southwest Minnesota

CITY           SKY/WX    TMP DP  RH WIND       PRES   REMARKS
MONTEVIDEO     CLEAR     63  46  55 SE6       30.22F
GRANITE FALLS  CLEAR     67  48  51 E5        30.22F
CANBY          PTCLDY    66  46  47 SE5       30.21S
MARSHALL       CLEAR     66  47  50 E7        30.20F
REDWOOD FALLS  CLEAR     66  47  50 E5        30.20F
OLIVIA         CLEAR     64  45  48 E3        30.21S
PIPESTONE      CLEAR     64  41  42 E5        30.20S
WINDOM         CLEAR     64  48  55 E6        30.21S
WORTHINGTON    CLEAR     61  49  64 E5        30.21S
JACKSON        MOCLDY    64  48  55 NE5       30.21S
TRACY          CLEAR     64  49  58 CALM      30.21S
SLAYTON        CLEAR     63  46  55 E5        30.21F
$$
MNZ065>067-074>077-082>085-091>093-010100-
   South Central Minnesota

CITY           SKY/WX    TMP DP  RH WIND       PRES   REMARKS
MANKATO        CLEAR     65  52  62 N8        30.21S
NEW ULM        CLEAR     66  52  59 NE3       30.21S
ST JAMES       PTCLDY    66  54  63 NE3       30.21S
FAIRMONT       CLOUDY    67  53  61 NE3       30.20S
GLENCOE        CLEAR     65  53  65 CALM      30.21F
FARIBAULT      CLEAR     64  52  63 CALM      30.21S
OWATONNA       PTCLDY    64  52  63 NE5       30.20S
WASECA         MOCLDY    63  50  63 NE5       30.21S
ALBERT LEA     CLOUDY    66  54  63 E7        30.19S
$$
MNZ078>079-086>088-094>096-010100-
   Southeast Minnesota

CITY           SKY/WX    TMP DP  RH WIND       PRES   REMARKS
ROCHESTER      CLOUDY    65  55  70 NE7       30.21S
6HR MIN TEMP:  65; 6HR MAX TEMP:  70;

RED WING       MOCLDY    68  50  52 NE5       30.19S
DODGE CENTER   CLOUDY    64  52  63 NE5       30.21S
WINONA         CLOUDY    63  55  77 SE5       30.21R
AUSTIN         CLOUDY    64  54  68 E3        30.19S
PRESTON        CLOUDY    63  54  73 E7        30.21S
$$
ABBREVIATIONS USED IN REMARKS
   TC - TEMPERATURES IN CELSIUS
  WCI - WIND CHILL INDEX
   HX - HEAT INDEX
  VSB - VISIBILITY
$$



USA.gov is the U.S. government's official web portal to all federal, state and local government web resources and services.